www.pogodaiklimat.ru

АРХИВ ПОГОДЫ в Волгограде

Время (UTC), дата Ветер
(напр.,м/с)
 
Видим.   Явления Облачность Т
(С)
Тd
(С)
f
(%)
Тe
(С)
Тes
(С)
Комфортность P
(гПа)
Po
(гПа)
Тmin
(С)
Tmax
(С)
R
(мм)
S
(см)
21 24.08 ЮВ 5 10 км ясно +22.0 +5.5 34 +22 +22 комфорт 1015.0 999.3
00 25.08 ЮВ 5 10 км ясно +18.5 +7.3 48 +18 +18 тепло 1014.2 998.4
03 25.08 ЮВ 5 10 км 8/0
[Ac trans Ci fib]
+18.5 +11.2 62 +19 +19 тепло 1014.2 998.5 +17.7
06 25.08 ЮВ 7 10 км 8/0
[Ac trans]
+23.7 +12.5 49 +26 +27 жарко 1013.5 998.0
09 25.08 ЮВ 8-11
{10}
10 км 8/0
[Ac trans Ci fib]
+29.0 +9.6 30 +29 +30 жарко 1012.3 997.1
12 25.08 ЮВ 9-12
{12}
10 км 8/0
[Ac trans Ci fib]
+33.2 +4.7 17 +31 +31 жарко 1010.6 995.7
15 25.08 ЮВ 7-10
{13}
10 км 9/4 1500 м
[Cb calv Ci fib]
+31.7 +8.2 23 +31 +31 жарко 1009.2 994.2 +34.0
18 25.08 ЮВ 6
{13}
10 км гроза без осадков 9/5 1500 м
[Cb calv Ac trans]
+28.0 +9.0 30 +28 +28 жарко 1011.2 996.0
21 25.08 В 8-10
{13}
10 км в посл. час гроза {ливн. осадки} 8/8
[Cb cap]
+21.5 +15.9 70 +25 +25 комфорт 1011.0 995.4
00 26.08 Ю 7 10 км {гроза, ливн. осадки} ясно +20.4 +13.2 63 +22 +22 комфорт 1011.9 996.2
03 26.08 Ю 5 10 км 9/5 1500 м
[Cb calv Ac trans]
+20.2 +15.1 72 +23 +23 комфорт 1012.2 996.5 +19.4
06 26.08 Ю 3 10 км в посл. час гроза {ливн. осадки} 9/5 1000 м
[Cb calv Ac trans Ci fib]
+21.7 +18.8 84 +27 +28 душно 1013.2 997.6
09 26.08 ЮВ 4 10 км 9/3 1000 м
[Cb calv Ac trans Ci fib]
+24.4 +19.4 74 +30 +33 очень
душно
1013.6 998.2
12 26.08 ЮВ 5
{10}
10 км 9/4 1000 м
[Cb calv Ac trans Ci fib]
+28.2 +18.6 56 +33 +35 очень
душно
1013.1 997.9
15 26.08 ЮВ 3 10 км в посл. час гроза 9/5 1000 м
[Cb calv Ci fib]
+26.7 +17.1 56 +31 +31 душно 1013.3 998.0 +28.8
18 26.08 В 2 10 км {гроза} 9/0
[Ac trans]
+23.8 +17.0 66 +28 +28 душно 1014.6 999.1
21 26.08 ЮЗ 2 10 км 5/0
[Ci fib]
+20.8 +17.8 83 +25 +25 комфорт 1015.4 999.7
00 27.08 С 2 10 км 3/0
[Ci fib]
+19.5 +17.7 89 +22 +22 комфорт 1015.7 1000.0
03 27.08 СВ 3 4000 м дымка 8/0
[Ac trans Ci fib]
+19.5 +17.4 88 +22 +22 комфорт 1017.2 1001.5 +18.2
06 27.08 С 5 10 км 4/4 1000 м
[Cu hum]
+24.2 +16.1 61 +28 +30 душно 1017.8 1002.3
09 27.08 СВ 5 10 км ясно +27.6 +14.7 45 +30 +37 жарко 1017.8 1002.5
12 27.08 С 4 10 км 4/4 1000 м
[Cu hum]
+28.9 +13.8 40 +31 +34 жарко 1017.2 1001.9
15 27.08 В 4
{11}
10 км 3/0
[Ci fib]
+27.3 +11.1 36 +28 +28 жарко 1017.7 1002.3 +30.0
18 27.08 С 4
{11}
10 км ясно +23.7 +10.3 43 +25 +25 комфорт 1018.6 1003.0
21 27.08 СВ 4 10 км ясно +20.2 +10.9 55 +22 +22 комфорт 1018.9 1003.2
00 28.08 ЮВ 1 10 км ясно +18.3 +12.2 68 +20 +20 тепло 1019.2 1003.4
03 28.08 СВ 3 10 км ясно +17.8 +13.1 74 +18 +18 по сезону 1019.8 1003.9 +15.6
06 28.08 В 2 10 км ясно +25.2 +12.5 45 +27 +34 жарко 1019.7 1004.2
09 28.08 СЗ 3 10 км ясно +27.3 +12.5 40 +29 +39 жарко 1018.6 1003.2
12 28.08 СЗ 3 10 км ясно +29.9 +11.9 33 +31 +37 жарко 1017.1 1001.9
15 28.08 С 3 10 км ясно +29.0 +13.1 38 +31 +31 жарко 1016.2 1001.0 +30.5
18 28.08 З 1 10 км ясно +23.9 +12.9 50 +26 +26 жарко 1017.3 1001.7
21 28.08 З 1 10 км ясно +21.1 +13.3 61 +23 +23 комфорт 1017.3 1001.7
00 29.08 З 2 10 км ясно +18.6 +13.3 71 +20 +20 тепло 1017.2 1001.4
03 29.08 С 3 10 км ясно +18.8 +14.4 76 +20 +20 тепло 1017.5 1001.7 +18.0
06 29.08 СВ 4 10 км ясно +26.5 +14.3 47 +29 +33 жарко 1018.1 1002.7
09 29.08 С 5 10 км 6/6 1500 м
[Cu hum]
+28.8 +13.9 40 +31 +33 жарко 1017.6 1002.3
12 29.08 С 4 10 км ясно +30.1 +6.3 22 +29 +33 жарко 1017.1 1001.9
15 29.08 В 6 10 км ясно +27.0 +4.2 23 +26 +26 жарко 1017.6 1002.2 +30.6
18 29.08 В 5 10 км ясно +21.0 +8.5 45 +22 +22 комфорт 1019.3 1003.6
21 29.08 В 6 10 км ясно +18.5 +5.5 42 +18 +18 тепло 1020.0 1004.1
00 30.08 В 5 10 км ясно +17.8 +3.3 38 +17 +17 тепло 1020.0 1004.1
03 30.08 В 4 10 км ясно +17.2 +3.8 41 +17 +17 по сезону 1020.5 1004.5 +16.0
06 30.08 ЮВ 5 10 км ясно +22.3 +5.3 33 +23 +26 комфорт 1020.2 1004.6
09 30.08 В 7-10
{10}
10 км ясно +26.0 +4.2 25 +25 +29 комфорт 1019.4 1003.9
12 30.08 ЮВ 6
{10}
10 км 3/0
[Ci fib]
+27.5 +3.1 21 +26 +29 жарко 1017.7 1002.3
15 30.08 ЮВ 5 10 км 3/0
[Ci fib]
+26.3 +2.9 22 +25 +25 комфорт 1016.6 1001.1 +28.3
18 30.08 В 4 10 км ясно +21.1 +2.0 28 +21 +21 комфорт 1016.5 1000.8
21 30.08 В 4 10 км ясно +19.4 +0.2 28 +20 +20 тепло 1015.6 999.8
00 31.08 ЮВ 5 10 км ясно +16.3 +3.2 41 +15 +15 по сезону 1014.3 998.4
03 31.08 В 5 10 км 8/0
[Ac trans Ci fib]
+15.2 +5.7 53 +14 +14 прохладно 1014.0 998.0 +13.9
06 31.08 ЮВ 7 10 км 4/0
[Ci fib]
+23.2 +7.0 35 +24 +26 комфорт 1012.5 997.0
09 31.08 ЮВ 6
{10}
10 км 4/0
[Ci fib]
+28.5 +3.8 21 +27 +31 жарко 1010.8 995.6
12 31.08 Ю 5
{10}
10 км 8/0
[Ac trans]
+29.9 0.0 14 +27 +29 жарко 1008.6 993.5
15 31.08 В 5 10 км 8/4
[Cb calv Ac trans]
+27.1 +2.0 20 +25 +25 комфорт 1007.3 992.1 +30.6
18 31.08 СЗ 5
{10}
10 км {ливн. осадки} 9/4 1500 м
[Cb calv Ac trans]
+21.0 +15.1 69 +24 +24 комфорт 1008.7 993.1

 

Местоположение метеостанции Волгоград (Волгоградская область, Россия): широта 48.78 долгота 44.37 высота над уровнем моря 134 м.

В архиве по умолчанию представлена погода в Волгограде за последнюю неделю. Архивные данные за месяц целиком и за предыдущие месяцы, начиная с января 2011 года, Вы можете получить, выбрав интересующий диапазон дат из раскрывающегося списка и нажав кнопку "Ввод!".

Внимание! Время в таблицах - всемирное. Для получения местного времени необходимо прибавить поправку, которая в Волгограде равна 3 ч.

Ветер - указаны скорость ветра в м/с - средняя за 10 мин, порывы в срок и между сроками (в фигурных скобках) и направление, откуда дует ветер: С - северный, СВ - северо-восточный, В - восточный, ЮВ - юго-восточный, Ю - южный, ЮЗ - юго-западный, З - западный, СЗ - северо-западный.
Видимость - горизонтальная дальность видимости в метрах или километрах. При видимости от 1 до 10 км при отсутствии осадков обычно наблюдается дымка, при ухудшении видимости до 1 км и менее - туман. В сухую погоду видимость может ухудшаться дымом, пылью или мглою.
Явления - указаны атмосферные явления, наблюдавшиеся в срок или в последний час перед сроком; фигурными скобками обозначены явления, наблюдавшиеся между сроками (за 1-3 часа до срока); квадратными скобками обозначены град или гололедные отложения с указанием их диаметра в мм.
Облачность - указаны через наклонную черту общая и нижняя облачность в баллах и высота нижней границы облаков в метрах; квадратными скобками обозначены формы облаков: Ci - перистые, Cs - перисто-слоистые, Cc - перисто-кучевые, Ac - высококучевые, As - высокослоистые, Sc - слоисто-кучевые, Ns - слоисто-дождевые, Cu - кучевые, Cb - кучево-дождевые. Подробнее классификацию облаков см. в Атласе облаков (PDF).
T - Температура воздуха - температура, измеренная на высоте 2 м над землей.
Td - Температура точки росы - температура, при понижении до которой содержащийся в воздухе водяной пар достигнет насыщения.
f - Относительная влажность воздуха - влажноcть воздуха, измеренная на высоте 2 м над землей.
Te - Эффективная температура - температура, которую ощущает одетый по сезону человек в тени. Характеристика душности погоды. При расчете учитывается влияние влажности воздуха и скорости ветра на теплоощущения человека.
Tes - Эффективная температура на солнце - температура, которую ощущает человек, с поправкой на солнечный нагрев. Характеристика знойности погоды. Зависит от высоты солнца над горизонтом, облачности и скорости ветра. Ночью, в пасмурную погоду, а также при ветре 12 м/с и более поправка равна нулю.
P - Атмосферное давление - приведенное к уровню моря атмосферное давление.
Po - Атмосферное давление - измеренное на уровне метеостанции атмосферное давление.
Tmin - Минимальная температура - минимум температуры воздуха на высоте 2 м над землей.
Tmax - Максимальная температура - максимум температуры воздуха на высоте 2 м над землей.
R - Количество осадков - Количество выпавших осадков, мм. При наведении курсора мыши на число - период времени, за который выпало указанное количество осадков.
S - Снежный покров - Высота снежного покрова, см. При наведении курсора мыши на число - состояние снежного покрова и степень покрытия местности в баллах.